Lexington Weather

Lexington, Massachusetts, USA

47°F
12/8/2022 3:26pm 
  • Lexington Conditions: Clear
  • Temperature: 47.3°F / 8.5°CColder 2.0°F than last hour.
  • Dew Point: 35.4°FDecreased 0.6°Fsince last hour.
  • Relative Humidity: 63%Increased 3.0% since last hour.
  • Wind: Wind from NNE NNE Calm, 10-min avg: 2 mph, gust: 8 mph
  • Barometer: 30.09 inRising 0.03  inHg/hr Rising Slowly
  • Visibility: 10 miles
  • Rain Today: 0.00 in
  •   

Warning: Undefined variable $rc in /homepages/6/d276339138/htdocs/weather/20190804/ssi/nwsProduct.php on line 323

Warning: Undefined variable $rc in /homepages/6/d276339138/htdocs/weather/20190804/ssi/nwsProduct.php on line 325

Warning: Undefined variable $rc in /homepages/6/d276339138/htdocs/weather/20190804/ssi/nwsProduct.php on line 323

Warning: Undefined variable $rc in /homepages/6/d276339138/htdocs/weather/20190804/ssi/nwsProduct.php on line 325

Warning: Undefined variable $rc in /homepages/6/d276339138/htdocs/weather/20190804/ssi/nwsProduct.php on line 323

Warning: Undefined variable $rc in /homepages/6/d276339138/htdocs/weather/20190804/ssi/nwsProduct.php on line 325

Warning: Undefined variable $rc in /homepages/6/d276339138/htdocs/weather/20190804/ssi/nwsProduct.php on line 323

Warning: Undefined variable $rc in /homepages/6/d276339138/htdocs/weather/20190804/ssi/nwsProduct.php on line 325

Warning: Undefined variable $rc in /homepages/6/d276339138/htdocs/weather/20190804/ssi/nwsProduct.php on line 323

Warning: Undefined variable $rc in /homepages/6/d276339138/htdocs/weather/20190804/ssi/nwsProduct.php on line 325

Warning: Undefined variable $rc in /homepages/6/d276339138/htdocs/weather/20190804/ssi/nwsProduct.php on line 323

Warning: Undefined variable $rc in /homepages/6/d276339138/htdocs/weather/20190804/ssi/nwsProduct.php on line 325

Warning: Undefined variable $rc in /homepages/6/d276339138/htdocs/weather/20190804/ssi/nwsProduct.php on line 323

Warning: Undefined variable $rc in /homepages/6/d276339138/htdocs/weather/20190804/ssi/nwsProduct.php on line 325

Regional Weather Roundup
for Boston, MA

        
000
ASUS41 KBOX 021010
RWRBOX

REGIONAL WEATHER ROUNDUP
NATIONAL WEATHER SERVICE BOSTON/NORTON MA
500 AM EST FRI DEC 02 2022

NOTE:  "FAIR" INDICATES FEW OR NO CLOUDS BELOW 12,000 FEET WITH NO 
SIGNIFICANT WEATHER AND/OR OBSTRUCTIONS TO VISIBILITY.

MAZALL-021100-
EASTERN MASSACHUSETTS
  
CITY           SKY/WX    TMP DP  RH WIND       PRES   REMARKS
BOSTON         CLEAR     35  23  61 W8        30.47R WCI  29          
BEVERLY        CLEAR     28  21  75 W3        30.45R                  
LAWRENCE       CLEAR     30  22  72 S3        30.46R                  
BEDFORD        CLEAR     29  22  75 W6        30.45R WCI  23          
NORWOOD        CLEAR     26  20  77 SE3       30.47R                  
MARSHFIELD       N/A     28  23  80 W3        30.46R                  
PLYMOUTH       CLEAR     30  21  69 W5        30.46R WCI  25          
TAUNTON          N/A    N/A N/A N/A MISG      30.47R                  
NEW BEDFORD    CLEAR     28  25  88 CALM      30.47R                  
$$

MAZALL-021100-
CAPE COD AND THE ISLANDS
  
CITY           SKY/WX    TMP DP  RH WIND       PRES   REMARKS
FALMOUTH       CLEAR     32  23  69 NW6       30.47R WCI  26          
HYANNIS        CLEAR     32  24  72 VRB5      30.46R WCI  27          
CHATHAM        CLEAR     32  23  69 W3        30.47R                  
PROVINCETOWN   PTCLDY    38  28  67 W12       30.47R WCI  30          
NANTUCKET      CLEAR     37  28  70 W8        30.46R WCI  31          
MARTHAS VNYRD  CLEAR     36  26  67 NW5       30.47R                  
$$
 
MAZALL-021100-
CENTRAL AND WESTERN MASSACHUSETTS
  
CITY           SKY/WX    TMP DP  RH WIND       PRES   REMARKS
WORCESTER      CLEAR     29  21  72 W8        30.41R WCI  21          
FITCHBURG      CLEAR     24  18  77 CALM      30.45R                  
ORANGE         CLEAR     22  19  89 S3        30.44R                  
SPRINGFIELD    CLEAR     27  21  77 S5        30.44R WCI  22          
WESTFIELD      CLEAR     22  19  89 CALM      30.46R                  
NORTH ADAMS    PTCLDY    30  23  75 W6        30.44R WCI  24          
PITTSFIELD     CLOUDY    29  22  75 W3        30.42R                  
$$
 
RIZALL-021100-
RHODE ISLAND
  
CITY           SKY/WX    TMP DP  RH WIND       PRES   REMARKS
PROVIDENCE     CLEAR     29  21  72 W6        30.49R WCI  23          
NEWPORT        CLEAR     32  23  69 W6        30.48R WCI  26          
BLOCK ISLAND   CLEAR     35  24  64 NW7       30.48R WCI  29          
SMITHFIELD     CLEAR     25  23  92 SW5       30.46R WCI  19          
WESTERLY       CLEAR     29  20  69 CALM      30.48R                  
$$
 
CTZALL-021100-
CONNECTICUT
  
CITY           SKY/WX    TMP DP  RH WIND       PRES   REMARKS
BRADLEY INTL   PTCLDY    28  20  71 S6        30.47R WCI  22          
HARTFORD       CLEAR     29  21  72 CALM      30.49R                  
BRIDGEPORT     CLEAR     31  21  66 NW8       30.50R WCI  23          
DANBURY        CLEAR     26  19  74 CALM      30.49R                  
GROTON         CLEAR     33  21  61 CALM      30.49R                  
NEW HAVEN      CLEAR     35  24  64 NW7       30.49R WCI  29          
CHESTER        FAIR      28  21  74 W3        30.47R                  
MERIDEN        CLEAR     22  18  85 CALM      30.49R                  
WILLIMANTIC    CLEAR     26  22  84 CALM      30.47R                  
OXFORD         CLEAR     21  18  88 CALM      30.46R                  
$$

MEZ002-015-021-024-NHZ003-005-008-011-012-014-VTZ005-008-021100-
NORTHERN NEW ENGLAND
  
CITY           SKY/WX    TMP DP  RH WIND       PRES   REMARKS
PORTLAND ME    CLEAR     25  19  78 CALM      30.41R                  
BANGOR ME      CLEAR     27  15  61 VRB5      30.39R WCI  22          
CONCORD NH     CLEAR     22  20  92 E9        30.42R WCI  12          
MANCHESTER NH  CLEAR     25  21  85 SE3       30.42S                  
NASHUA NH      CLEAR     25  25 100 CALM      30.45R                  
PORTSMOUTH NH  PTCLDY    29  20  69 SW3       30.42R                  
JAFFREY NH     CLEAR     28  21  75 SE3       30.40R                  
KEENE NH       CLEAR     21  20  96 CALM        N/A                   
BURLINGTON VT  PTCLDY    29  21  72 CALM      30.41S                  
MT. WASHINGTON FOG        5   5 100 W56G68      N/A  VSB 1/16WCI -25  
$$

NYZ052-076-021100-
EASTERN NEW YORK
  
CITY           SKY/WX    TMP DP  RH WIND       PRES   REMARKS
ALBANY         CLOUDY    34  23  64 W5        30.47R WCI  30          
NEW YORK CITY  CLEAR     34  19  54 W6        30.50R WCI  29          
$$
 
ANZALL-021100-
MARINE OBSERVATIONS
  
STATION/POSITION TIME  TEMP    WIND        PRES    VSBY  WAVE
                       AIR SEA DIR/SP/G                  HT/PER
                 (UTC) (F)     (DEG/KT/KT) (MB)    (MI)  (FT/S)
BOSTON BUOY      0950      51  280/ 14/ 17 1031.6R         2/ 3
BUZZARDS BAY     0900   38     300/ 16/ 17 1032.0R
NANTUCKET SOUND  0950   40                   N/A
MASS BAY-STELLWA 0804   39 50  270/ 14/ 19 1028.7R  1 7/8  2/ 4
ISLE OF SHOALS   0900   36     270/ 17/ 18 1029.2R
S OF BLOCK IS    0956      55                N/A           4/ 5
$$

......................KEY.........................
  SKY/WX - SKY CONDITION/PRESENT WEATHER
  TMP    - TEMPERATURE IN FAHRENHEIT
  DWPT   - DEWPOINT IN FAHRENHEIT
  RH     - RELATIVE HUMIDITY IN PERCENT
  WIND   - DIRECTION AND SPEED IN MPH
  PRES   - MEAN SEA LEVEL PRESSURE IN INCHES OF HG
  WCI    - WIND CHILL INDEX
  VSB    - VISIBILITY IN MILES
  HX     - HEAT INDEX
  TC     - TEMPERATURE IN CELSIUS
  VRB    - VARIABLE WIND DIRECTION
  N/A    - NOT AVAILABLE
  
      

Other recent Regional Weather Roundups

Thu Dec 8, 3:10pm

Thu Dec 8, 2:10pm

Thu Dec 8, 1:10pm

Thu Dec 8, 12:10pm

Thu Dec 8, 11:10am

Thu Dec 8, 10:10am

Thu Dec 8, 9:10am

Thu Dec 8, 8:10am

Thu Dec 8, 7:10am

Thu Dec 8, 6:10am

Thu Dec 8, 5:10am

Thu Dec 8, 4:10am

Thu Dec 8, 3:10am

Thu Dec 8, 2:10am

Thu Dec 8, 1:10am

Thu Dec 8, 12:10am

Wed Dec 7, 11:10pm

Wed Dec 7, 10:10pm

Wed Dec 7, 9:10pm

Wed Dec 7, 8:10pm

Wed Dec 7, 7:10pm

Wed Dec 7, 6:10pm

Wed Dec 7, 5:10pm

Wed Dec 7, 4:10pm

Wed Dec 7, 3:10pm

Wed Dec 7, 2:10pm

Wed Dec 7, 1:10pm

Wed Dec 7, 12:10pm

Wed Dec 7, 11:10am

Wed Dec 7, 10:10am

Wed Dec 7, 9:10am

Wed Dec 7, 8:10am

Wed Dec 7, 7:10am

Wed Dec 7, 6:10am

Wed Dec 7, 5:10am

Wed Dec 7, 4:10am

Wed Dec 7, 3:10am

Wed Dec 7, 2:10am

Wed Dec 7, 1:10am

Wed Dec 7, 12:10am

Tue Dec 6, 11:10pm

Tue Dec 6, 10:10pm

Tue Dec 6, 9:10pm

Tue Dec 6, 8:10pm

Tue Dec 6, 7:10pm

Tue Dec 6, 6:10pm

Tue Dec 6, 5:10pm

Tue Dec 6, 4:10pm

Tue Dec 6, 3:10pm

Tue Dec 6, 2:10pm

Tue Dec 6, 1:10pm

Tue Dec 6, 12:10pm

Tue Dec 6, 11:10am

Tue Dec 6, 10:10am

Tue Dec 6, 9:10am

Tue Dec 6, 8:10am

Tue Dec 6, 7:10am

Tue Dec 6, 6:10am

Tue Dec 6, 5:10am

Tue Dec 6, 4:10am

Tue Dec 6, 3:10am

Tue Dec 6, 2:10am

Tue Dec 6, 1:10am

Tue Dec 6, 12:10am

Mon Dec 5, 11:10pm

Mon Dec 5, 10:10pm

Mon Dec 5, 9:10pm

Mon Dec 5, 8:10pm

Mon Dec 5, 7:10pm

Mon Dec 5, 6:10pm

Mon Dec 5, 5:10pm

Mon Dec 5, 4:10pm

Mon Dec 5, 3:10pm

Mon Dec 5, 2:10pm

Mon Dec 5, 1:10pm

Mon Dec 5, 12:10pm

Mon Dec 5, 11:10am

Mon Dec 5, 10:10am

Mon Dec 5, 9:10am

Mon Dec 5, 8:10am

Mon Dec 5, 7:10am

Mon Dec 5, 6:10am

Mon Dec 5, 5:10am

Mon Dec 5, 4:10am

Mon Dec 5, 3:10am

Mon Dec 5, 2:10am

Mon Dec 5, 1:10am

Mon Dec 5, 12:10am

Sun Dec 4, 11:10pm

Sun Dec 4, 10:10pm

Sun Dec 4, 9:10pm

Sun Dec 4, 8:10pm

Sun Dec 4, 7:10pm

Sun Dec 4, 6:10pm

Sun Dec 4, 5:10pm

Sun Dec 4, 4:10pm

Sun Dec 4, 3:10pm

Sun Dec 4, 2:10pm

Sun Dec 4, 1:10pm

Sun Dec 4, 12:10pm

Sun Dec 4, 11:10am

Sun Dec 4, 10:10am

Sun Dec 4, 9:10am

Sun Dec 4, 8:10am

Sun Dec 4, 7:10am

Sun Dec 4, 6:10am

Sun Dec 4, 5:10am

Sun Dec 4, 4:10am

Sun Dec 4, 3:10am

Sun Dec 4, 2:10am

Sun Dec 4, 1:10am

Sun Dec 4, 12:10am

Sat Dec 3, 11:10pm

Sat Dec 3, 10:10pm

Sat Dec 3, 9:10pm

Sat Dec 3, 8:10pm

Sat Dec 3, 7:10pm

Sat Dec 3, 6:10pm

Sat Dec 3, 5:10pm

Sat Dec 3, 4:10pm

Sat Dec 3, 3:10pm

Sat Dec 3, 2:10pm

Sat Dec 3, 1:10pm

Sat Dec 3, 12:10pm

Sat Dec 3, 11:10am

Sat Dec 3, 10:10am

Sat Dec 3, 9:10am

Sat Dec 3, 8:10am

Sat Dec 3, 7:10am

Sat Dec 3, 6:10am

Sat Dec 3, 5:10am

Sat Dec 3, 4:10am

Sat Dec 3, 3:10am

Sat Dec 3, 2:10am

Sat Dec 3, 1:10am

Sat Dec 3, 12:10am

Fri Dec 2, 11:10pm

Fri Dec 2, 10:10pm

Fri Dec 2, 9:10pm

Fri Dec 2, 8:10pm

Fri Dec 2, 7:10pm

Fri Dec 2, 6:10pm

Fri Dec 2, 5:10pm

Fri Dec 2, 4:10pm

Fri Dec 2, 3:10pm

Fri Dec 2, 2:10pm

Fri Dec 2, 1:10pm

Fri Dec 2, 12:10pm

Fri Dec 2, 11:10am

Fri Dec 2, 10:10am

Fri Dec 2, 9:10am

Fri Dec 2, 8:10am

Fri Dec 2, 7:10am

Fri Dec 2, 6:10am

Fri Dec 2, 4:10am

Fri Dec 2, 3:10am

Fri Dec 2, 2:10am

Fri Dec 2, 1:10am

Fri Dec 2, 12:10am

Thu Dec 1, 11:10pm

Thu Dec 1, 10:10pm

Thu Dec 1, 9:10pm

Thu Dec 1, 8:10pm

Thu Dec 1, 7:10pm

Thu Dec 1, 6:10pm

Thu Dec 1, 5:10pm

Thu Dec 1, 4:10pm

Meta data:

ID: 1f6f7cf2-4f4a-4d83-81a4-7232cc05901e
Link: https://api.weather.gov/products/1f6f7cf2-4f4a-4d83-81a4-7232cc05901e